QPF
0.04 0.08 0.10 0.08 0.06 0.05 0.03 0.02 0.02 0.02 0.02 0.02 0.03 0.04 0.04 0.04 0.04 0.04 0.03 0.03 0.03 0.03 0.03 0.03 0.03 0.04 0.05 0.06 0.07 0.07 0.06 0.06 0.05 0.04 0.05 0.08 0.13 0.15 0.15 0.14 0.14 0.14 0.13
0.07 0.05 0.06 0.06 0.06 0.05 0.03 0.03 0.02 0.02 0.02 0.03 0.04 0.04 0.04 0.05 0.05 0.04 0.03 0.02 0.02 0.02 0.02 0.02 0.02 0.02 0.03 0.04 0.05 0.06 0.06 0.07 0.07 0.06 0.07 0.07 0.08 0.09 0.11 0.12 0.15 0.16 0.13
0.09 0.06 0.04 0.03 0.03 0.04 0.04 0.04 0.04 0.03 0.04 0.05 0.04 0.03 0.03 0.05 0.05 0.04 0.04 0.03 0.03 0.03 0.03 0.03 0.03 0.04 0.04 0.04 0.05 0.05 0.07 0.09 0.09 0.08 0.07 0.07 0.07 0.09 0.10 0.12 0.12 0.12 0.11
0.06 0.07 0.07 0.06 0.04 0.05 0.05 0.05 0.04 0.03 0.03 0.03 0.03 0.03 0.03 0.03 0.04 0.04 0.04 0.03 0.02 0.03 0.04 0.03 0.04 0.04 0.04 0.04 0.04 0.05 0.07 0.09 0.09 0.08 0.08 0.08 0.08 0.08 0.09 0.10 0.10 0.11 0.13
0.03 0.03 0.04 0.05 0.05 0.04 0.04 0.05 0.06 0.04 0.04 0.04 0.04 0.05 0.05 0.05 0.05 0.05 0.05 0.05 0.04 0.04 0.04 0.04 0.03 0.03 0.04 0.04 0.05 0.05 0.05 0.05 0.05 0.05 0.06 0.06 0.07 0.08 0.09 0.10 0.12 0.14 0.14
0.02 0.02 0.03 0.04 0.05 0.05 0.05 0.06 0.06 0.05 0.05 0.04 0.04 0.04 0.05 0.06 0.07 0.08 0.09 0.09 0.07 0.06 0.06 0.04 0.04 0.04 0.05 0.05 0.05 0.03 0.03 0.02 0.02 0.02 0.02 0.03 0.04 0.05 0.07 0.09 0.11 0.13 0.15
0.02 0.02 0.03 0.04 0.04 0.03 0.03 0.03 0.05 0.05 0.04 0.04 0.04 0.04 0.04 0.05 0.06 0.08 0.08 0.07 0.05 0.06 0.06 0.04 0.03 0.03 0.03 0.02 0.01 0.01 0.01 0.01 0.02 0.02 0.02 0.02 0.03 0.04 0.06 0.09 0.11 0.11 0.12
0.02 0.02 0.03 0.03 0.03 0.03 0.03 0.03 0.05 0.05 0.05 0.05 0.05 0.05 0.05 0.04 0.04 0.03 0.03 0.03 0.03 0.04 0.04 0.05 0.03 0.02 0.02 0.01 0.01 0.01 0.01 0.01 0.02 0.03 0.04 0.04 0.04 0.04 0.05 0.08 0.09 0.10 0.10
0.02 0.03 0.04 0.04 0.04 0.03 0.03 0.04 0.04 0.03 0.03 0.04 0.05 0.06 0.06 0.06 0.04 0.02 0.02 0.02 0.01 0.02 0.03 0.04 0.04 0.03 0.03 0.03 0.02 0.01 0.01 0.01 0.01 0.02 0.02 0.03 0.03 0.04 0.05 0.07 0.09 0.10 0.10
0.04 0.05 0.06 0.06 0.06 0.05 0.05 0.04 0.03 0.03 0.04 0.06 0.08 0.09 0.08 0.08 0.06 0.04 0.03 0.03 0.02 0.02 0.03 0.04 0.05 0.05 0.04 0.04 0.03 0.03 0.02 0.01 0.01 0.01 0.01 0.02 0.02 0.02 0.04 0.04 0.05 0.07 0.07
0.09 0.09 0.10 0.09 0.09 0.08 0.06 0.04 0.02 0.02 0.02 0.04 0.07 0.09 0.09 0.09 0.10 0.08 0.06 0.05 0.05 0.04 0.02 0.02 0.02 0.03 0.03 0.03 0.03 0.02 0.02 0.02 0.01 0.01 0.01 0.01 0.01 0.01 0.02 0.03 0.04 0.05 0.07
0.08 0.09 0.10 0.09 0.09 0.07 0.04 0.03 0.02 0.02 0.01 0.02 0.02 0.02 0.03 0.04 0.06 0.05 0.05 0.04 0.03 0.02 0.01 0.00 0.01 0.01 0.01 0.01 0.01 0.01 0.01 0.01 0.01 0.01 0.01 0.00 0.00 0.01 0.01 0.02 0.03 0.05 0.06
0.06 0.08 0.11 0.09 0.07 0.05 0.04 0.03 0.02 0.02 0.02 0.02 0.01 0.01 0.01 0.02 0.02 0.02 0.03 0.03 0.02 0.01 0.01 0.01 0.01 0.01 0.00 0.01 0.01 0.01 0.01 0.01 0.01 0.01 0.01 0.01 0.01 0.02 0.02 0.03 0.03 0.04 0.05
0.06 0.05 0.04 0.03 0.03 0.03 0.04 0.03 0.02 0.02 0.02 0.01 0.01 0.01 0.01 0.01 0.01 0.01 0.02 0.02 0.02 0.02 0.01 0.01 0.01 0.01 0.01 0.02 0.02 0.02 0.01 0.01 0.01 0.01 0.01 0.01 0.01 0.02 0.03 0.04 0.05 0.06 0.07
0.05 0.05 0.03 0.02 0.02 0.03 0.02 0.02 0.01 0.01 0.01 0.01 0.01 0.00 0.00 0.00 0.01 0.01 0.01 0.01 0.02 0.02 0.02 0.02 0.01 0.01 0.02 0.01 0.01 0.01 0.02 0.02 0.02 0.02 0.02 0.02 0.02 0.03 0.04 0.05 0.06 0.07 0.07
0.05 0.04 0.03 0.03 0.03 0.02 0.02 0.02 0.01 0.01 0.01 0.01 0.01 0.01 0.00 0.01 0.01 0.01 0.01 0.01 0.01 0.01 0.01 0.00 0.01 0.01 0.01 0.01 0.01 0.01 0.01 0.01 0.02 0.02 0.02 0.03 0.03 0.04 0.05 0.05 0.05 0.06 0.06
0.04 0.04 0.04 0.03 0.03 0.04 0.03 0.02 0.01 0.01 0.01 0.00 0.00 0.00 0.00 0.00 0.01 0.00 0.00 0.00 0.00 0.00 0.00 0.00 0.00 0.00 0.01 0.01 0.01 0.01 0.01 0.01 0.01 0.02 0.03 0.03 0.04 0.04 0.04 0.05 0.05 0.05 0.06
0.04 0.03 0.03 0.03 0.03 0.03 0.02 0.02 0.01 0.01 0.01 0.00 0.00 0.00 0.00 0.01 0.01 0.01 0.01 0.01 0.00 0.00 0.00 0.00 0.01 0.01 0.01 0.01 0.01 0.01 0.01 0.01 0.02 0.02 0.03 0.03 0.03 0.04 0.04 0.05 0.06 0.07 0.06
0.04 0.04 0.03 0.02 0.02 0.01 0.01 0.01 0.01 0.01 0.01 0.00 0.00 0.00 0.01 0.01 0.01 0.02 0.02 0.02 0.01 0.01 0.01 0.01 0.01 0.01 0.01 0.02 0.02 0.02 0.02 0.02 0.02 0.03 0.03 0.04 0.04 0.05 0.06 0.06 0.06 0.07 0.06
0.04 0.04 0.04 0.02 0.02 0.01 0.01 0.01 0.01 0.01 0.01 0.01 0.01 0.01 0.01 0.02 0.02 0.03 0.03 0.03 0.03 0.03 0.03 0.03 0.03 0.02 0.02 0.02 0.03 0.03 0.03 0.03 0.04 0.04 0.04 0.04 0.05 0.05 0.05 0.05 0.06 0.05 0.05
0.03 0.04 0.04 0.03 0.03 0.03 0.02 0.02 0.02 0.02 0.02 0.01 0.01 0.01 0.02 0.03 0.03 0.02 0.02 0.02 0.03 0.03 0.04 0.04 0.05 0.05 0.06 0.06 0.06 0.05 0.05 0.05 0.05 0.04 0.05 0.05 0.05 0.04 0.04 0.04 0.04 0.05 0.04
0.05 0.05 0.06 0.06 0.06 0.05 0.04 0.04 0.03 0.03 0.02 0.02 0.02 0.02 0.02 0.01 0.01 0.01 0.00 0.01 0.01 0.01 0.02 0.02 0.02 0.03 0.03 0.03 0.03 0.03 0.03 0.03 0.03 0.03 0.03 0.04 0.04 0.04 0.04 0.04 0.04 0.04 0.03
0.07 0.09 0.09 0.09 0.08 0.08 0.08 0.07 0.06 0.06 0.06 0.06 0.05 0.03 0.02 0.01 0.01 0.01 0.00 0.00 0.00 0.00 0.00 0.00 0.01 0.01 0.01 0.01 0.01 0.02 0.02 0.02 0.02 0.02 0.02 0.03 0.03 0.03 0.03 0.03 0.03 0.03 0.03
0.06 0.06 0.05 0.05 0.04 0.04 0.04 0.04 0.03 0.03 0.03 0.03 0.03 0.02 0.02 0.01 0.01 0.01 0.00 0.00 0.00 0.00 0.00 0.00 0.00 0.00 0.00 0.01 0.01 0.01 0.01 0.02 0.02 0.02 0.02 0.02 0.03 0.03 0.03 0.03 0.03 0.03 0.02
0.06 0.06 0.06 0.06 0.05 0.05 0.04 0.03 0.02 0.02 0.02 0.01 0.01 0.01 0.01 0.01 0.01 0.00 0.00 0.00 0.00 0.00 0.00 0.00 0.00 0.00 0.00 0.00 0.00 0.00 0.00 0.01 0.01 0.01 0.02 0.02 0.02 0.02 0.03 0.03 0.03 0.02 0.02
0.05 0.05 0.04 0.04 0.04 0.03 0.03 0.03 0.02 0.02 0.01 0.01 0.01 0.01 0.01 0.01 0.01 0.00 0.00 0.00 0.00 0.00 0.00 0.00 0.00 0.00 0.00 0.00 0.00 0.00 0.00 0.01 0.01 0.01 0.01 0.02 0.02 0.02 0.02 0.02 0.02 0.02 0.01
MSLP
1014.63 1015.05 1015.53 1016.00 1016.44 1016.83 1017.15 1017.42 1017.66 1017.88 1018.10 1018.30 1018.48 1018.61 1018.66 1018.62 1018.50 1018.30 1018.05 1017.79 1017.55 1017.36 1017.20 1017.09 1016.98 1016.86 1016.70 1016.47 1016.18 1015.85 1015.50 1015.19 1014.94 1014.78 1014.73 1014.77 1014.88 1015.02 1015.14 1015.23 1015.26 1015.26 1015.23
1014.82 1015.25 1015.71 1016.18 1016.61 1016.98 1017.31 1017.59 1017.84 1018.08 1018.31 1018.52 1018.70 1018.81 1018.85 1018.79 1018.65 1018.42 1018.15 1017.86 1017.58 1017.34 1017.13 1016.94 1016.76 1016.55 1016.30 1015.99 1015.63 1015.24 1014.86 1014.53 1014.28 1014.15 1014.14 1014.24 1014.42 1014.65 1014.87 1015.07 1015.22 1015.34 1015.43
1015.17 1015.61 1016.07 1016.52 1016.92 1017.27 1017.57 1017.84 1018.08 1018.32 1018.54 1018.74 1018.91 1019.01 1019.04 1018.97 1018.82 1018.59 1018.31 1018.01 1017.71 1017.43 1017.18 1016.93 1016.68 1016.39 1016.05 1015.65 1015.20 1014.74 1014.29 1013.91 1013.64 1013.49 1013.50 1013.65 1013.90 1014.22 1014.57 1014.91 1015.22 1015.49 1015.75
1015.60 1016.06 1016.52 1016.94 1017.31 1017.63 1017.90 1018.13 1018.35 1018.56 1018.77 1018.96 1019.12 1019.21 1019.23 1019.16 1019.01 1018.79 1018.51 1018.21 1017.91 1017.62 1017.33 1017.04 1016.73 1016.36 1015.94 1015.45 1014.91 1014.35 1013.82 1013.37 1013.04 1012.87 1012.86 1013.03 1013.34 1013.75 1014.23 1014.72 1015.20 1015.67 1016.12
1015.98 1016.47 1016.93 1017.34 1017.68 1017.97 1018.20 1018.41 1018.60 1018.80 1018.99 1019.17 1019.31 1019.40 1019.42 1019.35 1019.21 1018.99 1018.73 1018.44 1018.15 1017.85 1017.55 1017.23 1016.86 1016.44 1015.95 1015.37 1014.75 1014.10 1013.48 1012.95 1012.55 1012.32 1012.29 1012.46 1012.80 1013.29 1013.87 1014.51 1015.17 1015.82 1016.47
1016.22 1016.74 1017.21 1017.61 1017.93 1018.19 1018.40 1018.60 1018.78 1018.97 1019.16 1019.34 1019.48 1019.57 1019.59 1019.53 1019.39 1019.19 1018.94 1018.66 1018.37 1018.08 1017.77 1017.44 1017.05 1016.59 1016.04 1015.41 1014.71 1013.99 1013.30 1012.69 1012.22 1011.93 1011.86 1012.01 1012.36 1012.89 1013.56 1014.31 1015.12 1015.94 1016.76
1016.24 1016.78 1017.25 1017.65 1017.97 1018.23 1018.45 1018.65 1018.85 1019.05 1019.26 1019.45 1019.60 1019.70 1019.72 1019.67 1019.53 1019.34 1019.10 1018.84 1018.56 1018.27 1017.97 1017.63 1017.24 1016.76 1016.19 1015.53 1014.80 1014.04 1013.29 1012.63 1012.10 1011.76 1011.64 1011.76 1012.11 1012.65 1013.36 1014.19 1015.09 1016.03 1016.98
1016.00 1016.55 1017.03 1017.43 1017.77 1018.05 1018.29 1018.53 1018.77 1019.01 1019.25 1019.47 1019.65 1019.76 1019.79 1019.74 1019.62 1019.43 1019.20 1018.95 1018.68 1018.41 1018.12 1017.80 1017.41 1016.95 1016.39 1015.74 1015.01 1014.24 1013.49 1012.80 1012.25 1011.88 1011.72 1011.81 1012.12 1012.65 1013.36 1014.21 1015.15 1016.14 1017.15
1015.55 1016.08 1016.56 1016.97 1017.33 1017.64 1017.94 1018.24 1018.54 1018.84 1019.13 1019.39 1019.60 1019.74 1019.79 1019.75 1019.63 1019.46 1019.24 1019.00 1018.75 1018.50 1018.24 1017.94 1017.59 1017.16 1016.64 1016.03 1015.34 1014.61 1013.89 1013.23 1012.68 1012.31 1012.14 1012.19 1012.47 1012.96 1013.63 1014.44 1015.35 1016.32 1017.32
1014.93 1015.43 1015.89 1016.31 1016.70 1017.06 1017.43 1017.79 1018.16 1018.54 1018.89 1019.21 1019.45 1019.62 1019.69 1019.68 1019.58 1019.42 1019.22 1019.01 1018.79 1018.57 1018.34 1018.08 1017.78 1017.41 1016.95 1016.41 1015.79 1015.14 1014.49 1013.89 1013.39 1013.04 1012.87 1012.91 1013.16 1013.59 1014.19 1014.93 1015.75 1016.64 1017.56
1014.22 1014.67 1015.11 1015.53 1015.95 1016.36 1016.79 1017.22 1017.67 1018.12 1018.53 1018.90 1019.19 1019.40 1019.50 1019.52 1019.45 1019.33 1019.17 1018.99 1018.82 1018.64 1018.46 1018.25 1018.01 1017.70 1017.32 1016.86 1016.35 1015.79 1015.24 1014.73 1014.31 1014.02 1013.89 1013.93 1014.14 1014.51 1015.03 1015.65 1016.36 1017.12 1017.90
1013.50 1013.88 1014.28 1014.70 1015.13 1015.58 1016.07 1016.57 1017.08 1017.59 1018.06 1018.48 1018.82 1019.06 1019.21 1019.28 1019.26 1019.19 1019.09 1018.97 1018.85 1018.73 1018.61 1018.46 1018.28 1018.04 1017.74 1017.37 1016.96 1016.52 1016.08 1015.68 1015.36 1015.15 1015.06 1015.12 1015.32 1015.64 1016.07 1016.57 1017.14 1017.74 1018.37
1012.79 1013.10 1013.45 1013.85 1014.29 1014.77 1015.29 1015.84 1016.40 1016.95 1017.47 1017.93 1018.32 1018.61 1018.82 1018.94 1019.00 1019.00 1018.97 1018.93 1018.89 1018.84 1018.78 1018.69 1018.57 1018.39 1018.17 1017.88 1017.57 1017.23 1016.91 1016.62 1016.41 1016.29 1016.27 1016.37 1016.56 1016.84 1017.19 1017.59 1018.02 1018.47 1018.92
1012.10 1012.34 1012.64 1013.00 1013.43 1013.93 1014.47 1015.04 1015.64 1016.22 1016.77 1017.27 1017.70 1018.04 1018.31 1018.51 1018.64 1018.74 1018.81 1018.85 1018.89 1018.92 1018.92 1018.89 1018.82 1018.70 1018.54 1018.32 1018.09 1017.85 1017.63 1017.45 1017.35 1017.32 1017.38 1017.51 1017.72 1017.98 1018.27 1018.58 1018.89 1019.20 1019.51
1011.41 1011.57 1011.82 1012.15 1012.56 1013.05 1013.60 1014.19 1014.79 1015.39 1015.96 1016.49 1016.96 1017.36 1017.69 1017.97 1018.20 1018.39 1018.55 1018.70 1018.82 1018.92 1018.98 1019.01 1018.98 1018.91 1018.78 1018.63 1018.45 1018.29 1018.16 1018.08 1018.06 1018.12 1018.25 1018.44 1018.67 1018.92 1019.17 1019.42 1019.64 1019.85 1020.04
1010.70 1010.79 1010.98 1011.28 1011.67 1012.15 1012.69 1013.28 1013.88 1014.49 1015.07 1015.62 1016.12 1016.57 1016.97 1017.33 1017.65 1017.93 1018.20 1018.43 1018.64 1018.80 1018.92 1018.98 1018.99 1018.95 1018.86 1018.74 1018.61 1018.51 1018.45 1018.44 1018.50 1018.63 1018.82 1019.05 1019.31 1019.57 1019.81 1020.01 1020.18 1020.32 1020.43
1009.95 1009.98 1010.14 1010.40 1010.78 1011.24 1011.77 1012.35 1012.95 1013.56 1014.15 1014.72 1015.25 1015.74 1016.20 1016.62 1017.02 1017.39 1017.73 1018.04 1018.31 1018.54 1018.70 1018.80 1018.83 1018.81 1018.74 1018.66 1018.57 1018.51 1018.50 1018.55 1018.67 1018.85 1019.09 1019.36 1019.64 1019.91 1020.14 1020.33 1020.48 1020.58 1020.65
1009.19 1009.19 1009.31 1009.56 1009.91 1010.36 1010.88 1011.46 1012.06 1012.66 1013.26 1013.85 1014.40 1014.93 1015.43 1015.91 1016.36 1016.79 1017.20 1017.56 1017.88 1018.14 1018.33 1018.46 1018.52 1018.52 1018.48 1018.42 1018.37 1018.35 1018.38 1018.47 1018.63 1018.85 1019.12 1019.41 1019.71 1019.98 1020.21 1020.39 1020.53 1020.62 1020.68
1008.49 1008.47 1008.58 1008.81 1009.16 1009.60 1010.12 1010.69 1011.29 1011.90 1012.50 1013.09 1013.66 1014.21 1014.74 1015.25 1015.74 1016.20 1016.64 1017.03 1017.37 1017.65 1017.87 1018.02 1018.10 1018.12 1018.11 1018.09 1018.07 1018.09 1018.16 1018.29 1018.48 1018.72 1019.00 1019.29 1019.58 1019.85 1020.08 1020.26 1020.39 1020.48 1020.55
1007.95 1007.93 1008.03 1008.26 1008.60 1009.04 1009.56 1010.13 1010.73 1011.34 1011.95 1012.54 1013.12 1013.67 1014.21 1014.72 1015.22 1015.68 1016.12 1016.52 1016.86 1017.15 1017.38 1017.54 1017.64 1017.70 1017.73 1017.74 1017.77 1017.83 1017.93 1018.09 1018.29 1018.54 1018.81 1019.10 1019.37 1019.62 1019.83 1020.00 1020.13 1020.23 1020.31
1007.67 1007.65 1007.75 1007.99 1008.33 1008.77 1009.29 1009.86 1010.45 1011.06 1011.66 1012.25 1012.81 1013.36 1013.88 1014.37 1014.85 1015.29 1015.71 1016.09 1016.42 1016.70 1016.93 1017.10 1017.23 1017.32 1017.38 1017.45 1017.52 1017.62 1017.76 1017.94 1018.15 1018.39 1018.65 1018.90 1019.15 1019.36 1019.55 1019.70 1019.82 1019.92 1020.01
1007.72 1007.71 1007.82 1008.06 1008.40 1008.84 1009.35 1009.91 1010.49 1011.08 1011.66 1012.23 1012.77 1013.28 1013.77 1014.23 1014.66 1015.07 1015.44 1015.78 1016.08 1016.34 1016.56 1016.74 1016.89 1017.01 1017.12 1017.23 1017.35 1017.49 1017.65 1017.85 1018.06 1018.29 1018.53 1018.75 1018.95 1019.13 1019.28 1019.40 1019.51 1019.60 1019.70
1008.14 1008.14 1008.26 1008.50 1008.83 1009.26 1009.75 1010.28 1010.83 1011.39 1011.94 1012.46 1012.96 1013.43 1013.87 1014.27 1014.65 1015.00 1015.32 1015.61 1015.87 1016.10 1016.30 1016.48 1016.64 1016.79 1016.93 1017.08 1017.23 1017.41 1017.60 1017.80 1018.01 1018.23 1018.43 1018.62 1018.79 1018.93 1019.04 1019.14 1019.22 1019.31 1019.41
1008.90 1008.91 1009.03 1009.26 1009.57 1009.97 1010.42 1010.91 1011.41 1011.92 1012.41 1012.89 1013.32 1013.73 1014.11 1014.45 1014.76 1015.05 1015.31 1015.55 1015.76 1015.96 1016.14 1016.30 1016.46 1016.62 1016.78 1016.95 1017.13 1017.32 1017.52 1017.73 1017.94 1018.13 1018.32 1018.48 1018.61 1018.72 1018.81 1018.89 1018.95 1019.03 1019.12
1009.91 1009.93 1010.04 1010.25 1010.53 1010.88 1011.28 1011.70 1012.14 1012.58 1013.00 1013.40 1013.77 1014.11 1014.42 1014.70 1014.95 1015.17 1015.38 1015.56 1015.73 1015.88 1016.03 1016.17 1016.32 1016.47 1016.63 1016.80 1016.98 1017.18 1017.38 1017.58 1017.78 1017.96 1018.13 1018.27 1018.38 1018.48 1018.55 1018.61 1018.67 1018.74 1018.82
1011.05 1011.07 1011.18 1011.35 1011.59 1011.88 1012.21 1012.56 1012.92 1013.27 1013.61 1013.93 1014.23 1014.50 1014.75 1014.96 1015.15 1015.32 1015.47 1015.61 1015.73 1015.84 1015.95 1016.06 1016.17 1016.30 1016.44 1016.59 1016.76 1016.94 1017.13 1017.31 1017.50 1017.67 1017.82 1017.96 1018.07 1018.16 1018.23 1018.29 1018.35 1018.41 1018.48
Thickness
5757 5754 5751 5749 5746 5744 5742 5740 5738 5736 5735 5733 5731 5730 5728 5727 5725 5723 5722 5721 5719 5718 5717 5716 5715 5714 5713 5712 5711 5708 5706 5703 5699 5698 5695 5693 5691 5689 5686 5683 5681 5679 5677
5756 5753 5749 5747 5744 5742 5740 5738 5737 5735 5733 5732 5730 5728 5726 5724 5723 5721 5719 5718 5716 5715 5714 5713 5712 5712 5710 5709 5707 5705 5703 5701 5697 5693 5690 5687 5684 5682 5680 5677 5674 5672 5670
5755 5751 5747 5745 5742 5740 5738 5736 5734 5732 5730 5728 5727 5725 5724 5722 5719 5718 5716 5715 5713 5712 5711 5710 5709 5708 5706 5705 5703 5701 5700 5697 5694 5690 5686 5683 5679 5676 5673 5670 5668 5665 5662
5752 5748 5745 5742 5740 5738 5735 5733 5731 5728 5726 5724 5723 5722 5720 5718 5716 5714 5712 5711 5709 5708 5707 5706 5705 5704 5702 5701 5699 5696 5694 5691 5688 5684 5680 5677 5673 5670 5668 5665 5661 5658 5655
5750 5746 5742 5740 5737 5734 5732 5730 5728 5725 5723 5721 5719 5717 5716 5713 5711 5709 5708 5706 5705 5703 5702 5701 5700 5699 5698 5696 5694 5691 5689 5685 5682 5678 5674 5671 5667 5664 5662 5659 5655 5652 5648
5746 5742 5740 5737 5733 5730 5727 5725 5722 5720 5718 5717 5714 5712 5710 5708 5706 5705 5703 5701 5699 5697 5696 5694 5693 5692 5691 5689 5688 5686 5683 5680 5676 5673 5669 5666 5663 5660 5657 5654 5650 5646 5640
5743 5739 5736 5733 5729 5726 5724 5720 5718 5715 5713 5711 5709 5707 5704 5702 5701 5699 5697 5695 5693 5691 5689 5688 5686 5685 5684 5682 5681 5679 5676 5674 5671 5669 5665 5662 5659 5656 5652 5648 5643 5640 5635
5739 5736 5732 5728 5725 5722 5719 5716 5713 5710 5708 5705 5703 5701 5698 5696 5694 5692 5690 5688 5686 5684 5682 5681 5679 5678 5677 5675 5674 5672 5669 5666 5664 5662 5660 5657 5654 5650 5647 5643 5638 5631 5625
5734 5731 5728 5724 5720 5717 5713 5710 5708 5705 5702 5699 5697 5694 5692 5690 5688 5686 5684 5682 5680 5677 5675 5674 5672 5671 5669 5668 5666 5664 5661 5658 5656 5654 5652 5649 5646 5643 5639 5634 5629 5624 5619
5729 5726 5723 5720 5716 5712 5709 5705 5702 5699 5696 5693 5690 5688 5686 5684 5682 5680 5678 5676 5674 5671 5669 5667 5665 5663 5661 5659 5658 5655 5653 5650 5647 5645 5642 5639 5636 5633 5630 5626 5623 5618 5613
5726 5722 5718 5715 5711 5707 5703 5700 5697 5693 5690 5687 5684 5681 5679 5677 5675 5673 5671 5669 5667 5665 5663 5660 5658 5656 5653 5651 5649 5647 5644 5641 5638 5636 5633 5629 5626 5623 5619 5616 5613 5609 5605
5720 5716 5712 5708 5706 5702 5697 5693 5690 5686 5683 5680 5677 5674 5672 5669 5667 5666 5664 5662 5660 5658 5655 5653 5650 5648 5646 5643 5640 5637 5635 5632 5629 5626 5623 5619 5616 5613 5609 5605 5602 5598 5595
5713 5709 5705 5701 5698 5695 5691 5687 5683 5679 5675 5672 5670 5668 5665 5662 5660 5658 5656 5655 5653 5650 5647 5645 5642 5639 5637 5634 5631 5628 5625 5623 5620 5616 5613 5609 5605 5602 5598 5594 5591 5587 5583
5707 5703 5699 5695 5691 5687 5683 5679 5676 5672 5669 5666 5664 5661 5658 5655 5653 5650 5648 5646 5644 5641 5638 5635 5632 5629 5627 5624 5621 5618 5615 5612 5609 5606 5603 5598 5595 5591 5588 5584 5580 5576 5572
5699 5695 5691 5687 5682 5678 5674 5670 5667 5664 5662 5660 5658 5654 5651 5649 5645 5642 5639 5637 5635 5632 5629 5626 5623 5620 5617 5614 5611 5607 5604 5602 5599 5595 5592 5588 5585 5581 5577 5573 5569 5566 5562
5690 5686 5683 5679 5674 5670 5665 5660 5656 5654 5652 5651 5648 5645 5643 5640 5637 5634 5631 5628 5625 5622 5620 5617 5613 5610 5606 5603 5600 5597 5594 5591 5588 5584 5581 5578 5574 5571 5567 5562 5559 5556 5552
5682 5678 5675 5671 5667 5663 5659 5656 5651 5646 5643 5641 5639 5636 5634 5631 5628 5625 5622 5619 5615 5612 5610 5606 5603 5599 5596 5593 5590 5587 5584 5580 5576 5573 5570 5567 5563 5560 5556 5552 5548 5545 5541
5673 5670 5667 5663 5660 5656 5652 5648 5645 5641 5637 5633 5630 5627 5625 5622 5618 5615 5612 5609 5605 5601 5599 5596 5592 5589 5585 5582 5579 5576 5573 5570 5566 5563 5560 5556 5553 5550 5546 5543 5539 5535 5531
5664 5661 5658 5655 5651 5648 5644 5639 5636 5632 5629 5625 5621 5618 5614 5611 5608 5604 5601 5599 5596 5592 5588 5585 5581 5578 5575 5572 5569 5566 5563 5560 5556 5553 5550 5546 5543 5540 5537 5533 5529 5524 5521
5655 5653 5649 5646 5642 5638 5634 5630 5627 5623 5620 5617 5613 5610 5605 5602 5599 5595 5591 5589 5586 5582 5578 5575 5572 5568 5565 5562 5559 5556 5553 5550 5547 5544 5541 5537 5534 5531 5527 5523 5520 5517 5513
5645 5643 5640 5636 5632 5629 5625 5622 5618 5615 5611 5608 5604 5600 5596 5594 5590 5586 5582 5578 5575 5572 5569 5565 5562 5559 5555 5552 5549 5546 5544 5541 5538 5535 5532 5528 5525 5521 5518 5514 5511 5507 5504
5635 5633 5630 5627 5623 5619 5616 5612 5609 5605 5602 5598 5593 5589 5585 5583 5580 5576 5573 5570 5566 5563 5559 5556 5552 5549 5546 5544 5541 5537 5534 5532 5529 5526 5523 5519 5516 5513 5509 5505 5502 5499 5495
5624 5621 5619 5616 5613 5609 5605 5601 5598 5595 5591 5587 5583 5579 5575 5572 5569 5566 5564 5561 5557 5554 5550 5547 5543 5540 5537 5534 5531 5528 5525 5523 5520 5517 5513 5510 5507 5504 5500 5497 5494 5491 5488
5612 5610 5607 5604 5601 5598 5595 5591 5588 5584 5581 5577 5574 5570 5567 5563 5560 5557 5554 5552 5548 5545 5542 5538 5535 5532 5528 5525 5522 5520 5517 5514 5511 5508 5505 5502 5498 5495 5492 5489 5486 5483 5480
5601 5599 5596 5594 5591 5587 5584 5581 5577 5574 5571 5568 5564 5561 5557 5554 5551 5548 5546 5543 5540 5536 5533 5530 5527 5524 5521 5518 5515 5512 5509 5506 5503 5500 5496 5493 5490 5487 5484 5481 5478 5476 5473
5590 5587 5585 5582 5579 5576 5573 5570 5567 5564 5561 5558 5555 5552 5549 5546 5543 5540 5537 5534 5531 5528 5525 5522 5519 5516 5513 5510 5507 5504 5501 5498 5495 5491 5488 5484 5481 5479 5476 5473 5471 5468 5466